Wetterdaten: aktuell Dienstag, 20.02.2018 12:00
Datum Zeit Temp. A. Temp. A. min Feuchte A. Luftdruck Regen Wind Richtung Richtung Sonnenschein Solar Taupunkt Windchill Windben
20.02.2018 12:00 1,5 C 1,5 C 80 % 1016,2 hPa 0,0 l/m 5,5 km/h (1 Bft) W 279 0 min 0 W/m -1,6 C -0,1 C 9,7 km/h (2 Bft)
20.02.2018 11:55 1,6 C 1,6 C 80 % 1016,3 hPa 0,0 l/m 6,1 km/h (2 Bft) NW 310 0 min 0 W/m -1,5 C -0,2 C 11,3 km/h (2 Bft)
20.02.2018 11:50 1,6 C 1,5 C 80 % 1016,3 hPa 0,0 l/m 4,1 km/h (1 Bft) N-NW 344 0 min 0 W/m -1,5 C 1,6 C 12,9 km/h (3 Bft)
20.02.2018 11:45 1,5 C 1,4 C 80 % 1016,3 hPa 0,0 l/m 5,8 km/h (2 Bft) W 281 0 min 0 W/m -1,6 C -0,2 C 11,3 km/h (2 Bft)
20.02.2018 11:40 1,4 C 1,4 C 80 % 1016,3 hPa 0,0 l/m 3,7 km/h (1 Bft) NW 322 0 min 0 W/m -1,7 C 1,4 C 6,4 km/h (2 Bft)
20.02.2018 11:35 1,4 C 1,3 C 80 % 1016,4 hPa 0,0 l/m 4,2 km/h (1 Bft) W-NW 289 0 min 0 W/m -1,7 C 1,4 C 8,0 km/h (2 Bft)
20.02.2018 11:30 1,3 C 1,3 C 81 % 1016,4 hPa 0,0 l/m 4,2 km/h (1 Bft) W 273 0 min 0 W/m -1,6 C 1,3 C 11,3 km/h (2 Bft)
20.02.2018 11:25 1,3 C 1,3 C 80 % 1016,3 hPa 0,0 l/m 3,5 km/h (1 Bft) W 271 0 min 0 W/m -1,8 C 1,3 C 8,0 km/h (2 Bft)
20.02.2018 11:20 1,3 C 1,2 C 81 % 1016,3 hPa 0,0 l/m 4,5 km/h (1 Bft) W 270 0 min 0 W/m -1,6 C 1,3 C 6,4 km/h (2 Bft)
20.02.2018 11:15 1,2 C 1,2 C 81 % 1016,3 hPa 0,0 l/m 3,1 km/h (1 Bft) W 269 0 min 0 W/m -1,7 C 1,2 C 6,4 km/h (2 Bft)
20.02.2018 11:10 1,2 C 1,2 C 81 % 1016,3 hPa 0,0 l/m 2,9 km/h (1 Bft) W 280 0 min 0 W/m -1,7 C 1,2 C 6,4 km/h (2 Bft)
20.02.2018 11:05 1,2 C 1,1 C 81 % 1016,2 hPa 0,0 l/m 3,1 km/h (1 Bft) W-SW 257 0 min 0 W/m -1,7 C 1,2 C 6,4 km/h (2 Bft)
20.02.2018 11:00 1,1 C 1,1 C 81 % 1016,3 hPa 0,0 l/m 2,8 km/h (1 Bft) W-NW 296 0 min 0 W/m -1,8 C 1,1 C 6,4 km/h (2 Bft)
20.02.2018 10:55 1,1 C 1,1 C 81 % 1016,3 hPa 0,0 l/m 2,3 km/h (1 Bft) W-NW 289 0 min 0 W/m -1,8 C 1,1 C 6,4 km/h (2 Bft)
20.02.2018 10:50 1,1 C 1,1 C 81 % 1016,4 hPa 0,0 l/m 3,3 km/h (1 Bft) W 279 0 min 0 W/m -1,8 C 1,1 C 6,4 km/h (2 Bft)
20.02.2018 10:45 1,1 C 1,0 C 81 % 1016,4 hPa 0,0 l/m 3,4 km/h (1 Bft) W-NW 301 0 min 0 W/m -1,8 C 1,1 C 6,4 km/h (2 Bft)
20.02.2018 10:40 1,0 C 0,9 C 81 % 1016,4 hPa 0,0 l/m 1,9 km/h (1 Bft) W-NW 288 0 min 0 W/m -1,9 C 1,0 C 4,8 km/h (1 Bft)
20.02.2018 10:35 0,9 C 0,9 C 81 % 1016,4 hPa 0,0 l/m 2,8 km/h (1 Bft) W 273 0 min 0 W/m -2,0 C 0,9 C 6,4 km/h (2 Bft)
20.02.2018 10:30 0,9 C 0,9 C 81 % 1016,4 hPa 0,0 l/m 2,4 km/h (1 Bft) NW 310 0 min 0 W/m -2,0 C 0,9 C 4,8 km/h (1 Bft)
20.02.2018 10:25 0,9 C 0,9 C 81 % 1016,5 hPa 0,0 l/m 5,0 km/h (1 Bft) W 281 0 min 0 W/m -2,0 C -0,6 C 8,0 km/h (2 Bft)
20.02.2018 10:20 0,9 C 0,8 C 82 % 1016,5 hPa 0,0 l/m 2,2 km/h (1 Bft) N-NW 335 0 min 0 W/m -1,8 C 0,9 C 6,4 km/h (2 Bft)
20.02.2018 10:15 0,8 C 0,8 C 81 % 1016,5 hPa 0,0 l/m 2,2 km/h (1 Bft) W 271 0 min 0 W/m -2,1 C 0,8 C 4,8 km/h (1 Bft)
20.02.2018 10:10 0,8 C 0,8 C 81 % 1016,6 hPa 0,0 l/m 2,9 km/h (1 Bft) NW 315 0 min 0 W/m -2,1 C 0,8 C 8,0 km/h (2 Bft)
20.02.2018 10:05 0,8 C 0,8 C 81 % 1016,5 hPa 0,0 l/m 3,3 km/h (1 Bft) N-NW 348 0 min 0 W/m -2,1 C 0,8 C 6,4 km/h (2 Bft)
20.02.2018 10:00 0,8 C 0,7 C 82 % 1016,6 hPa 0,0 l/m 2,9 km/h (1 Bft) W-NW 287 0 min 0 W/m -1,9 C 0,8 C 4,8 km/h (1 Bft)
20.02.2018 09:55 0,7 C 0,7 C 82 % 1016,7 hPa 0,0 l/m 2,0 km/h (1 Bft) N-NW 337 0 min 0 W/m -2,0 C 0,7 C 4,8 km/h (1 Bft)
20.02.2018 09:50 0,7 C 0,6 C 82 % 1016,6 hPa 0,0 l/m 2,9 km/h (1 Bft) NW 315 0 min 0 W/m -2,0 C 0,7 C 6,4 km/h (2 Bft)
20.02.2018 09:45 0,6 C 0,5 C 82 % 1016,7 hPa 0,0 l/m 2,6 km/h (1 Bft) W-NW 286 0 min 0 W/m -2,1 C 0,6 C 4,8 km/h (1 Bft)
20.02.2018 09:40 0,5 C 0,5 C 82 % 1016,7 hPa 0,0 l/m 3,6 km/h (1 Bft) NW 305 0 min 0 W/m -2,2 C 0,5 C 6,4 km/h (2 Bft)
20.02.2018 09:35 0,5 C 0,4 C 82 % 1016,7 hPa 0,0 l/m 3,7 km/h (1 Bft) W-NW 300 0 min 0 W/m -2,2 C 0,5 C 6,4 km/h (2 Bft)
20.02.2018 09:30 0,4 C 0,4 C 83 % 1016,7 hPa 0,0 l/m 2,5 km/h (1 Bft) W 281 0 min 0 W/m -2,1 C 0,4 C 4,8 km/h (1 Bft)
20.02.2018 09:25 0,4 C 0,4 C 83 % 1016,8 hPa 0,0 l/m 2,7 km/h (1 Bft) W 266 0 min 0 W/m -2,1 C 0,4 C 6,4 km/h (2 Bft)
20.02.2018 09:20 0,4 C 0,4 C 83 % 1016,8 hPa 0,0 l/m 3,6 km/h (1 Bft) W-NW 301 0 min 0 W/m -2,1 C 0,4 C 9,7 km/h (2 Bft)
20.02.2018 09:15 0,4 C 0,3 C 84 % 1016,7 hPa 0,0 l/m 2,7 km/h (1 Bft) W-NW 286 0 min 0 W/m -2,0 C 0,4 C 9,7 km/h (2 Bft)
20.02.2018 09:10 0,3 C 0,3 C 84 % 1016,7 hPa 0,0 l/m 2,3 km/h (1 Bft) W-NW 298 0 min 0 W/m -2,1 C 0,3 C 4,8 km/h (1 Bft)
20.02.2018 09:05 0,3 C 0,3 C 84 % 1016,8 hPa 0,0 l/m 3,5 km/h (1 Bft) W-NW 287 0 min 0 W/m -2,1 C 0,3 C 4,8 km/h (1 Bft)
20.02.2018 09:00 0,3 C 0,2 C 85 % 1016,6 hPa 0,0 l/m 2,4 km/h (1 Bft) N-NW 343 0 min 0 W/m -1,9 C 0,3 C 4,8 km/h (1 Bft)
20.02.2018 08:55 0,3 C 0,2 C 85 % 1016,5 hPa 0,0 l/m 1,7 km/h (1 Bft) N-NW 343 0 min 0 W/m -1,9 C 0,3 C 3,2 km/h (1 Bft)
20.02.2018 08:50 0,2 C 0,2 C 85 % 1016,6 hPa 0,0 l/m 3,4 km/h (1 Bft) N-NW 343 0 min 0 W/m -2,0 C 0,2 C 4,8 km/h (1 Bft)
20.02.2018 08:45 0,2 C 0,2 C 85 % 1016,5 hPa 0,0 l/m 3,9 km/h (1 Bft) NW 319 0 min 0 W/m -2,0 C 0,2 C 6,4 km/h (2 Bft)
20.02.2018 08:40 0,2 C 0,2 C 85 % 1016,6 hPa 0,0 l/m 3,2 km/h (1 Bft) NW 326 0 min 0 W/m -2,0 C 0,2 C 6,4 km/h (2 Bft)
20.02.2018 08:35 0,2 C 0,2 C 85 % 1016,5 hPa 0,0 l/m 1,8 km/h (1 Bft) W-NW 296 0 min 0 W/m -2,0 C 0,2 C 4,8 km/h (1 Bft)
20.02.2018 08:30 0,2 C 0,2 C 85 % 1016,5 hPa 0,0 l/m 1,3 km/h (1 Bft) W-NW 300 0 min 0 W/m -2,0 C 0,2 C 4,8 km/h (1 Bft)
20.02.2018 08:25 0,2 C 0,2 C 85 % 1016,5 hPa 0,0 l/m 3,3 km/h (1 Bft) W-NW 299 0 min 0 W/m -2,0 C 0,2 C 4,8 km/h (1 Bft)
20.02.2018 08:20 0,2 C 0,2 C 86 % 1016,5 hPa 0,0 l/m 3,2 km/h (1 Bft) W-NW 299 0 min 0 W/m -1,9 C 0,2 C 8,0 km/h (2 Bft)
20.02.2018 08:15 0,2 C 0,1 C 86 % 1016,5 hPa 0,0 l/m 2,7 km/h (1 Bft) NW 305 0 min 0 W/m -1,9 C 0,2 C 6,4 km/h (2 Bft)
20.02.2018 08:10 0,1 C 0,1 C 86 % 1016,6 hPa 0,0 l/m 2,5 km/h (1 Bft) NW 311 0 min 0 W/m -2,0 C 0,1 C 6,4 km/h (2 Bft)
20.02.2018 08:05 0,1 C 0,1 C 86 % 1016,6 hPa 0,0 l/m 0,9 km/h (0 Bft) W-NW 292 0 min 0 W/m -2,0 C 0,1 C 3,2 km/h (1 Bft)
20.02.2018 08:00 0,1 C 0,1 C 86 % 1016,5 hPa 0,0 l/m 1,5 km/h (1 Bft) W-NW 292 0 min 0 W/m -2,0 C 0,1 C 6,4 km/h (2 Bft)
20.02.2018 07:55 0,1 C 0,1 C 87 % 1016,4 hPa 0,0 l/m 4,4 km/h (1 Bft) N-NW 327 0 min 0 W/m -1,8 C 0,1 C 8,0 km/h (2 Bft)
20.02.2018 07:50 0,1 C 0,1 C 87 % 1016,4 hPa 0,0 l/m 4,7 km/h (1 Bft) N-NW 329 0 min 0 W/m -1,8 C -1,3 C 8,0 km/h (2 Bft)
20.02.2018 07:45 0,1 C 0,0 C 86 % 1016,4 hPa 0,0 l/m 3,4 km/h (1 Bft) N-NW 340 0 min 0 W/m -2,0 C 0,1 C 6,4 km/h (2 Bft)
20.02.2018 07:40 0,0 C 0,0 C 86 % 1016,3 hPa 0,0 l/m 2,5 km/h (1 Bft) N-NW 333 0 min 0 W/m -2,1 C 0,0 C 4,8 km/h (1 Bft)
20.02.2018 07:35 0,1 C 0,1 C 87 % 1016,3 hPa 0,0 l/m 0,1 km/h (0 Bft) SO 139 0 min 0 W/m -1,8 C 0,1 C 1,6 km/h (1 Bft)
20.02.2018 07:30 0,1 C 0,1 C 87 % 1016,3 hPa 0,0 l/m 0,3 km/h (0 Bft) SO 139 0 min 0 W/m -1,8 C 0,1 C 1,6 km/h (1 Bft)
20.02.2018 07:25 0,1 C 0,1 C 86 % 1016,3 hPa 0,0 l/m 1,4 km/h (1 Bft) SO 139 0 min 0 W/m -2,0 C 0,1 C 3,2 km/h (1 Bft)
20.02.2018 07:20 0,1 C 0,1 C 86 % 1016,2 hPa 0,0 l/m 0,5 km/h (0 Bft) SO 139 0 min 0 W/m -2,0 C 0,1 C 3,2 km/h (1 Bft)
20.02.2018 07:15 0,1 C 0,1 C 86 % 1016,2 hPa 0,0 l/m 1,6 km/h (1 Bft) SO 139 0 min 0 W/m -2,0 C 0,1 C 3,2 km/h (1 Bft)
20.02.2018 07:10 0,1 C 0,1 C 85 % 1016,2 hPa 0,0 l/m 2,6 km/h (1 Bft) SO 139 0 min 0 W/m -2,1 C 0,1 C 4,8 km/h (1 Bft)
20.02.2018 07:05 0,1 C 0,1 C 85 % 1016,2 hPa 0,0 l/m 3,3 km/h (1 Bft) S 175 0 min 0 W/m -2,1 C 0,1 C 6,4 km/h (2 Bft)
20.02.2018 07:00 0,1 C 0,1 C 83 % 1016,2 hPa 0,0 l/m 0,8 km/h (0 Bft) N-NW 347 0 min 0 W/m -2,4 C 0,1 C 3,2 km/h (1 Bft)
20.02.2018 06:55 0,1 C 0,1 C 83 % 1016,2 hPa 0,0 l/m 0,1 km/h (0 Bft) N-NW 347 0 min 0 W/m -2,4 C 0,1 C 1,6 km/h (1 Bft)
20.02.2018 06:50 0,1 C 0,1 C 83 % 1016,2 hPa 0,0 l/m 0,8 km/h (0 Bft) N-NW 347 0 min 0 W/m -2,4 C 0,1 C 3,2 km/h (1 Bft)
20.02.2018 06:45 0,1 C 0,0 C 83 % 1016,2 hPa 0,0 l/m 0,2 km/h (0 Bft) N-NW 347 0 min 0 W/m -2,4 C 0,1 C 1,6 km/h (1 Bft)
20.02.2018 06:40 0,0 C 0,0 C 83 % 1016,1 hPa 0,0 l/m 1,9 km/h (1 Bft) N-NW 347 0 min 0 W/m -2,5 C 0,0 C 4,8 km/h (1 Bft)
20.02.2018 06:35 0,0 C 0,0 C 84 % 1016,1 hPa 0,0 l/m 1,4 km/h (1 Bft) NW 323 0 min 0 W/m -2,4 C 0,0 C 3,2 km/h (1 Bft)
20.02.2018 06:30 0,0 C 0,0 C 84 % 1016,1 hPa 0,0 l/m 0,8 km/h (0 Bft) NW 323 0 min 0 W/m -2,4 C 0,0 C 3,2 km/h (1 Bft)
20.02.2018 06:25 0,0 C -0,1 C 84 % 1016,0 hPa 0,0 l/m 2,1 km/h (1 Bft) NW 323 0 min 0 W/m -2,4 C 0,0 C 4,8 km/h (1 Bft)
20.02.2018 06:20 -0,1 C -0,1 C 84 % 1016,0 hPa 0,0 l/m 0,9 km/h (0 Bft) N-NO 17 0 min 0 W/m -2,5 C -0,1 C 3,2 km/h (1 Bft)
20.02.2018 06:15 -0,1 C -0,1 C 84 % 1016,0 hPa 0,0 l/m 0,7 km/h (0 Bft) N-NO 17 0 min 0 W/m -2,5 C -0,1 C 3,2 km/h (1 Bft)
20.02.2018 06:10 -0,1 C -0,1 C 84 % 1016,0 hPa 0,0 l/m 0,1 km/h (0 Bft) N-NO 17 0 min 0 W/m -2,5 C -0,1 C 1,6 km/h (1 Bft)
20.02.2018 06:05 -0,1 C -0,1 C 84 % 1016,0 hPa 0,0 l/m 1,2 km/h (1 Bft) N-NO 17 0 min 0 W/m -2,5 C -0,1 C 6,4 km/h (2 Bft)
20.02.2018 06:00 -0,1 C -0,1 C 85 % 1015,9 hPa 0,0 l/m 0,3 km/h (0 Bft) NO 55 0 min 0 W/m -2,3 C -0,1 C 3,2 km/h (1 Bft)
20.02.2018 05:55 -0,1 C -0,1 C 85 % 1015,8 hPa 0,0 l/m 0,1 km/h (0 Bft) NO 55 0 min 0 W/m -2,3 C -0,1 C 1,6 km/h (1 Bft)
20.02.2018 05:50 -0,1 C -0,1 C 85 % 1015,9 hPa 0,0 l/m 0,5 km/h (0 Bft) NO 55 0 min 0 W/m -2,3 C -0,1 C 1,6 km/h (1 Bft)
20.02.2018 05:45 -0,1 C -0,1 C 85 % 1015,9 hPa 0,0 l/m 1,3 km/h (1 Bft) NO 55 0 min 0 W/m -2,3 C -0,1 C 3,2 km/h (1 Bft)
20.02.2018 05:40 -0,1 C -0,1 C 85 % 1016,0 hPa 0,0 l/m 1,2 km/h (1 Bft) NO 55 0 min 0 W/m -2,3 C -0,1 C 3,2 km/h (1 Bft)
20.02.2018 05:35 -0,1 C -0,1 C 86 % 1016,0 hPa 0,0 l/m 2,0 km/h (1 Bft) NO 55 0 min 0 W/m -2,2 C -0,1 C 4,8 km/h (1 Bft)
20.02.2018 05:30 -0,1 C -0,1 C 86 % 1016,1 hPa 0,0 l/m 1,8 km/h (1 Bft) O-NO 57 0 min 0 W/m -2,2 C -0,1 C 4,8 km/h (1 Bft)
20.02.2018 05:25 -0,1 C -0,1 C 86 % 1016,2 hPa 0,0 l/m 1,3 km/h (1 Bft) O-NO 58 0 min 0 W/m -2,2 C -0,1 C 3,2 km/h (1 Bft)
20.02.2018 05:20 -0,1 C -0,1 C 86 % 1016,1 hPa 0,0 l/m 1,5 km/h (1 Bft) O-NO 58 0 min 0 W/m -2,2 C -0,1 C 3,2 km/h (1 Bft)
20.02.2018 05:15 -0,1 C -0,1 C 86 % 1016,2 hPa 0,0 l/m 1,4 km/h (1 Bft) O-NO 58 0 min 0 W/m -2,2 C -0,1 C 3,2 km/h (1 Bft)
20.02.2018 05:10 -0,1 C -0,1 C 86 % 1016,2 hPa 0,0 l/m 0,9 km/h (0 Bft) O-NO 58 0 min 0 W/m -2,2 C -0,1 C 3,2 km/h (1 Bft)
20.02.2018 05:05 -0,1 C -0,1 C 86 % 1016,2 hPa 0,0 l/m 1,2 km/h (1 Bft) O-NO 58 0 min 0 W/m -2,2 C -0,1 C 3,2 km/h (1 Bft)
20.02.2018 05:00 -0,1 C -0,1 C 87 % 1016,1 hPa 0,0 l/m 2,2 km/h (1 Bft) O-NO 58 0 min 0 W/m -2,0 C -0,1 C 4,8 km/h (1 Bft)
20.02.2018 04:55 -0,1 C -0,1 C 87 % 1016,2 hPa 0,0 l/m 1,8 km/h (1 Bft) N-NO 14 0 min 0 W/m -2,0 C -0,1 C 4,8 km/h (1 Bft)
20.02.2018 04:50 -0,1 C -0,1 C 87 % 1016,2 hPa 0,0 l/m 2,3 km/h (1 Bft) N-NO 14 0 min 0 W/m -2,0 C -0,1 C 3,2 km/h (1 Bft)
20.02.2018 04:45 -0,1 C -0,1 C 87 % 1016,1 hPa 0,0 l/m 2,0 km/h (1 Bft) N-NO 14 0 min 0 W/m -2,0 C -0,1 C 3,2 km/h (1 Bft)
20.02.2018 04:40 -0,1 C -0,1 C 87 % 1016,1 hPa 0,0 l/m 0,7 km/h (0 Bft) N-NO 14 0 min 0 W/m -2,0 C -0,1 C 3,2 km/h (1 Bft)
20.02.2018 04:35 -0,1 C -0,1 C 87 % 1016,2 hPa 0,0 l/m 1,3 km/h (1 Bft) N-NO 14 0 min 0 W/m -2,0 C -0,1 C 3,2 km/h (1 Bft)
20.02.2018 04:30 -0,1 C -0,1 C 86 % 1016,2 hPa 0,0 l/m 0,8 km/h (0 Bft) N-NO 14 0 min 0 W/m -2,2 C -0,1 C 3,2 km/h (1 Bft)
20.02.2018 04:25 -0,1 C -0,1 C 86 % 1016,2 hPa 0,0 l/m 1,8 km/h (1 Bft) N-NO 14 0 min 0 W/m -2,2 C -0,1 C 4,8 km/h (1 Bft)
20.02.2018 04:20 -0,1 C -0,1 C 86 % 1016,3 hPa 0,0 l/m 1,9 km/h (1 Bft) N-NO 14 0 min 0 W/m -2,2 C -0,1 C 4,8 km/h (1 Bft)
20.02.2018 04:15 -0,1 C -0,1 C 86 % 1016,3 hPa 0,0 l/m 2,5 km/h (1 Bft) N-NO 14 0 min 0 W/m -2,2 C -0,1 C 4,8 km/h (1 Bft)
20.02.2018 04:10 -0,1 C -0,1 C 86 % 1016,2 hPa 0,0 l/m 2,8 km/h (1 Bft) N-NO 13 0 min 0 W/m -2,2 C -0,1 C 4,8 km/h (1 Bft)
20.02.2018 04:05 -0,1 C -0,1 C 86 % 1016,3 hPa 0,0 l/m 2,5 km/h (1 Bft) N-NO 12 0 min 0 W/m -2,2 C -0,1 C 4,8 km/h (1 Bft)
20.02.2018 04:00 -0,1 C -0,1 C 86 % 1016,3 hPa 0,0 l/m 2,3 km/h (1 Bft) N-NO 12 0 min 0 W/m -2,2 C -0,1 C 4,8 km/h (1 Bft)
20.02.2018 03:55 -0,1 C -0,1 C 86 % 1016,3 hPa 0,0 l/m 2,2 km/h (1 Bft) N-NO 24 0 min 0 W/m -2,2 C -0,1 C 4,8 km/h (1 Bft)
20.02.2018 03:50 -0,1 C -0,1 C 86 % 1016,2 hPa 0,0 l/m 1,6 km/h (1 Bft) N-NO 24 0 min 0 W/m -2,2 C -0,1 C 4,8 km/h (1 Bft)
20.02.2018 03:45 -0,1 C -0,1 C 86 % 1016,2 hPa 0,0 l/m 1,6 km/h (1 Bft) N-NO 24 0 min 0 W/m -2,2 C -0,1 C 3,2 km/h (1 Bft)
20.02.2018 03:40 0,0 C -0,1 C 86 % 1016,2 hPa 0,0 l/m 2,1 km/h (1 Bft) N-NO 24 0 min 0 W/m -2,1 C 0,0 C 3,2 km/h (1 Bft)
20.02.2018 03:35 -0,1 C -0,1 C 86 % 1016,1 hPa 0,0 l/m 1,5 km/h (1 Bft) N-NO 24 0 min 0 W/m -2,2 C -0,1 C 3,2 km/h (1 Bft)
20.02.2018 03:30 0,0 C 0,0 C 86 % 1016,1 hPa 0,0 l/m 2,1 km/h (1 Bft) N-NO 24 0 min 0 W/m -2,1 C 0,0 C 3,2 km/h (1 Bft)
20.02.2018 03:25 0,0 C 0,0 C 86 % 1016,1 hPa 0,0 l/m 1,2 km/h (1 Bft) N-NO 22 0 min 0 W/m -2,1 C 0,0 C 3,2 km/h (1 Bft)
20.02.2018 03:20 0,0 C 0,0 C 86 % 1016,1 hPa 0,0 l/m 1,7 km/h (1 Bft) N-NO 22 0 min 0 W/m -2,1 C 0,0 C 3,2 km/h (1 Bft)
20.02.2018 03:15 0,0 C 0,0 C 86 % 1016,1 hPa 0,0 l/m 2,2 km/h (1 Bft) N-NO 22 0 min 0 W/m -2,1 C 0,0 C 3,2 km/h (1 Bft)
20.02.2018 03:10 0,0 C 0,0 C 86 % 1016,1 hPa 0,0 l/m 1,3 km/h (1 Bft) N-NO 22 0 min 0 W/m -2,1 C 0,0 C 3,2 km/h (1 Bft)
20.02.2018 03:05 0,0 C 0,0 C 86 % 1016,2 hPa 0,0 l/m 1,6 km/h (1 Bft) N-NO 22 0 min 0 W/m -2,1 C 0,0 C 3,2 km/h (1 Bft)
20.02.2018 03:00 0,0 C 0,0 C 86 % 1016,2 hPa 0,0 l/m 1,0 km/h (0 Bft) N-NO 22 0 min 0 W/m -2,1 C 0,0 C 3,2 km/h (1 Bft)
20.02.2018 02:55 0,1 C 0,1 C 86 % 1016,3 hPa 0,0 l/m 1,4 km/h (1 Bft) N-NO 23 0 min 0 W/m -2,0 C 0,1 C 3,2 km/h (1 Bft)
20.02.2018 02:50 0,1 C 0,1 C 86 % 1016,3 hPa 0,0 l/m 2,6 km/h (1 Bft) N-NO 23 0 min 0 W/m -2,0 C 0,1 C 4,8 km/h (1 Bft)
20.02.2018 02:45 0,1 C 0,0 C 86 % 1016,3 hPa 0,0 l/m 1,9 km/h (1 Bft) N 5 0 min 0 W/m -2,0 C 0,1 C 4,8 km/h (1 Bft)
20.02.2018 02:40 0,1 C 0,0 C 85 % 1016,3 hPa 0,0 l/m 2,7 km/h (1 Bft) N 5 0 min 0 W/m -2,1 C 0,1 C 4,8 km/h (1 Bft)
20.02.2018 02:35 0,1 C 0,0 C 85 % 1016,3 hPa 0,0 l/m 2,3 km/h (1 Bft) N 355 0 min 0 W/m -2,1 C 0,1 C 4,8 km/h (1 Bft)
20.02.2018 02:30 0,1 C 0,0 C 85 % 1016,3 hPa 0,0 l/m 1,1 km/h (1 Bft) N 355 0 min 0 W/m -2,1 C 0,1 C 3,2 km/h (1 Bft)
20.02.2018 02:25 0,1 C 0,0 C 85 % 1016,3 hPa 0,0 l/m 1,1 km/h (1 Bft) N 355 0 min 0 W/m -2,1 C 0,1 C 3,2 km/h (1 Bft)
20.02.2018 02:20 0,1 C 0,1 C 85 % 1016,3 hPa 0,0 l/m 1,6 km/h (1 Bft) N 355 0 min 0 W/m -2,1 C 0,1 C 3,2 km/h (1 Bft)
20.02.2018 02:15 0,1 C 0,1 C 85 % 1016,3 hPa 0,0 l/m 1,7 km/h (1 Bft) N 355 0 min 0 W/m -2,1 C 0,1 C 3,2 km/h (1 Bft)
20.02.2018 02:10 0,1 C 0,1 C 85 % 1016,3 hPa 0,0 l/m 3,0 km/h (1 Bft) N 355 0 min 0 W/m -2,1 C 0,1 C 4,8 km/h (1 Bft)
20.02.2018 02:05 0,1 C 0,1 C 85 % 1016,3 hPa 0,0 l/m 2,7 km/h (1 Bft) N 5 0 min 0 W/m -2,1 C 0,1 C 4,8 km/h (1 Bft)
20.02.2018 02:00 0,1 C 0,1 C 85 % 1016,3 hPa 0,0 l/m 3,2 km/h (1 Bft) N-NO 31 0 min 0 W/m -2,1 C 0,1 C 4,8 km/h (1 Bft)
20.02.2018 01:55 0,1 C 0,1 C 85 % 1016,3 hPa 0,0 l/m 2,9 km/h (1 Bft) NO 42 0 min 0 W/m -2,1 C 0,1 C 4,8 km/h (1 Bft)
20.02.2018 01:50 0,1 C 0,1 C 85 % 1016,3 hPa 0,0 l/m 1,6 km/h (1 Bft) NO 43 0 min 0 W/m -2,1 C 0,1 C 3,2 km/h (1 Bft)
20.02.2018 01:45 0,1 C 0,1 C 85 % 1016,3 hPa 0,0 l/m 1,2 km/h (1 Bft) NO 36 0 min 0 W/m -2,1 C 0,1 C 3,2 km/h (1 Bft)
20.02.2018 01:40 0,1 C 0,1 C 85 % 1016,4 hPa 0,0 l/m 0,6 km/h (0 Bft) NO 36 0 min 0 W/m -2,1 C 0,1 C 1,6 km/h (1 Bft)
20.02.2018 01:35 0,1 C 0,1 C 85 % 1016,3 hPa 0,0 l/m 2,2 km/h (1 Bft) NO 36 0 min 0 W/m -2,1 C 0,1 C 4,8 km/h (1 Bft)
20.02.2018 01:30 0,1 C 0,1 C 85 % 1016,4 hPa 0,0 l/m 2,0 km/h (1 Bft) NO 44 0 min 0 W/m -2,1 C 0,1 C 3,2 km/h (1 Bft)
20.02.2018 01:25 0,1 C 0,1 C 85 % 1016,4 hPa 0,0 l/m 0,3 km/h (0 Bft) NO 45 0 min 0 W/m -2,1 C 0,1 C 1,6 km/h (1 Bft)
20.02.2018 01:20 0,1 C 0,1 C 86 % 1016,4 hPa 0,0 l/m 0,5 km/h (0 Bft) NO 45 0 min 0 W/m -2,0 C 0,1 C 1,6 km/h (1 Bft)
20.02.2018 01:15 0,1 C 0,1 C 86 % 1016,4 hPa 0,0 l/m 0,7 km/h (0 Bft) NO 45 0 min 0 W/m -2,0 C 0,1 C 1,6 km/h (1 Bft)
20.02.2018 01:10 0,1 C 0,1 C 86 % 1016,5 hPa 0,0 l/m 0,3 km/h (0 Bft) NO 45 0 min 0 W/m -2,0 C 0,1 C 1,6 km/h (1 Bft)
20.02.2018 01:05 0,1 C 0,1 C 86 % 1016,6 hPa 0,0 l/m 0,8 km/h (0 Bft) NO 45 0 min 0 W/m -2,0 C 0,1 C 1,6 km/h (1 Bft)
20.02.2018 01:00 0,1 C 0,1 C 86 % 1016,5 hPa 0,0 l/m 0,4 km/h (0 Bft) NO 45 0 min 0 W/m -2,0 C 0,1 C 1,6 km/h (1 Bft)
20.02.2018 00:55 0,1 C 0,1 C 86 % 1016,6 hPa 0,0 l/m 0,8 km/h (0 Bft) NO 45 0 min 0 W/m -2,0 C 0,1 C 3,2 km/h (1 Bft)
20.02.2018 00:50 0,1 C 0,1 C 87 % 1016,6 hPa 0,0 l/m 1,4 km/h (1 Bft) NO 45 0 min 0 W/m -1,8 C 0,1 C 3,2 km/h (1 Bft)
20.02.2018 00:45 0,1 C 0,1 C 87 % 1016,6 hPa 0,0 l/m 0,2 km/h (0 Bft) NO 45 0 min 0 W/m -1,8 C 0,1 C 1,6 km/h (1 Bft)
20.02.2018 00:40 0,1 C 0,1 C 87 % 1016,6 hPa 0,0 l/m 0,5 km/h (0 Bft) NO 45 0 min 0 W/m -1,8 C 0,1 C 1,6 km/h (1 Bft)
20.02.2018 00:35 0,1 C 0,1 C 86 % 1016,7 hPa 0,0 l/m 1,1 km/h (1 Bft) NO 45 0 min 0 W/m -2,0 C 0,1 C 3,2 km/h (1 Bft)
20.02.2018 00:30 0,2 C 0,2 C 86 % 1016,7 hPa 0,0 l/m 1,1 km/h (1 Bft) NO 45 0 min 0 W/m -1,9 C 0,2 C 3,2 km/h (1 Bft)
20.02.2018 00:25 0,2 C 0,2 C 86 % 1016,7 hPa 0,0 l/m 1,4 km/h (1 Bft) NO 45 0 min 0 W/m -1,9 C 0,2 C 3,2 km/h (1 Bft)
20.02.2018 00:20 0,2 C 0,2 C 86 % 1016,8 hPa 0,0 l/m 1,3 km/h (1 Bft) NO 44 0 min 0 W/m -1,9 C 0,2 C 3,2 km/h (1 Bft)
20.02.2018 00:15 0,2 C 0,2 C 86 % 1016,7 hPa 0,0 l/m 1,6 km/h (1 Bft) NO 44 0 min 0 W/m -1,9 C 0,2 C 3,2 km/h (1 Bft)
20.02.2018 00:10 0,2 C 0,2 C 86 % 1016,7 hPa 0,0 l/m 1,4 km/h (1 Bft) NO 44 0 min 0 W/m -1,9 C 0,2 C 3,2 km/h (1 Bft)
20.02.2018 00:05 0,2 C 0,2 C 86 % 1016,8 hPa 0,0 l/m 1,8 km/h (1 Bft) NO 44 0 min 0 W/m -1,9 C 0,2 C 4,8 km/h (1 Bft)
20.02.2018 00:00 0,2 C 0,2 C 86 % 1016,8 hPa 0,0 l/m 0,6 km/h (0 Bft) O 82 0 min 0 W/m -1,9 C 0,2 C 3,2 km/h (1 Bft)
_ Min-Zeit 03:35 03:35 11:25 05:55 - 05:55 - - - - 06:40 07:50 00:40
Minimum _ -0,1 C -0,1 C 80 % 1015,8 hPa - 0,1 km/h (0 Bft) - - - - -2,5 C -1,3 C 1,6 km/h (1 Bft)
_ Max-Zeit 11:50 11:55 00:40 00:00 00:00 11:55 - - 00:00 00:00 11:50 11:50 11:50
Maximum _ 1,6 C 1,6 C 87 % 1016,8 hPa 0,0 l/m 6,1 km/h
NW (2 Bft)
- - 0 min 0 W/m -1,5 C 1,6 C 12,9 km/h
W (3 Bft)
Durchschnitt _ 0,3 C 0,3 C 85 % 1016,3 hPa #0,0 l/m 2,1 km/h (1 Bft) N-NO - #0 min. 0 W/m -2,0 C 0,2 C 4,6 km/h (1 Bft)